Location: Sungai Lalit
(2.6833°N, 113.2000°E)
Time: 07:52:27
(UTC+00:00)

Daily predictions for brighter satellites

Satellite Brightness Start Highest point End
(mag) Time Altitude Azimuth Time Altitude Azimuth Time Altitude Azimuth
GPS 2-15 Rocket1 3.1 12:01:44 10° WNW 12:06:31 70° SSW 12:06:57 65° SSE
Delta 202 4.3 12:00:15 10° WSW 12:06:42 83° SSE 12:11:29 31° ENE
CZ-4B DEB 4.1 12:07:03 45° SSE 12:08:47 75° ENE 12:14:15 10° N
Cosmos 2151 4.2 12:05:04 10° N 12:07:17 29° NNE 12:07:17 29° NNE
FUSE 3.9 12:03:51 10° WNW 12:09:13 75° SSW 12:10:03 61° SSE
Cosmos 2298 Rocket 4.1 12:09:02 10° NNW 12:14:20 76° WSW 12:15:54 46° S
Hubble Space Telescope 2.7 12:14:42 10° SW 12:16:08 20° SW 12:16:08 20° SW
Resurs 1-3 3.7 12:19:48 71° NW 12:19:48 71° NW 12:23:46 10° NNW
Ariane H10 2.8 12:15:08 10° W 12:23:39 75° NW 12:23:39 75° NW
ARIANE 5 DEB (SYLDA) 2.9 12:16:48 10° W 12:23:52 67° WNW 12:23:52 67° WNW
Centaur D AC-29 4.1 12:22:56 10° NNW 12:24:29 12° N 12:26:23 10° NNE
Cosmos 1680 Rocket 3.9 12:26:19 53° NNE 12:26:19 53° NNE 12:30:19 10° NNE
Palapa 6 Rocket 3.6 12:18:45 10° WSW 12:24:35 70° SSW 12:24:35 70° SSW
SL-16 R/B 2.3 12:26:26 10° SSW 12:32:03 72° WNW 12:37:40 10° N
Cosmos 2233 Rocket 4.1 12:26:05 10° N 12:32:20 72° W 12:34:21 45° SSW
Ariane H10+ 4.3 12:40:07 10° WNW 12:44:33 68° N 22:08:48 10° E
SPOT 1/Viking Rocket 4.5 12:50:39 45° WNW 12:50:39 45° WNW 12:54:49 10° NNW
SeaSat 1 4.1 12:55:23 29° NNW 12:55:23 29° NNW 12:57:46 10° NNW
ARIANE 5 R/B 3.6 12:52:18 10° W 13:01:44 38° WSW 13:01:44 38° WSW
Milstar 3 3.9 13:07:00 10° WNW 13:14:56 57° SSW 13:14:58 57° SSW
Centaur D-1AR AC-39 4.4 13:12:42 10° W 13:13:46 16° WNW 13:13:46 16° WNW
ATLAS 5 CENTAUR R/B 4.3 13:10:12 10° N 13:12:23 22° N 13:12:23 22° N
ATLAS 5 CENTAUR R/B 4.5 17:21:06 10° WNW 18:22:55 69° NNE 18:33:05 10° E
H-2A R/B 4.3 19:01:04 35° NNE 19:02:30 37° NE 19:14:35 10° ESE
H-2A R/B 3.8 19:46:01 10° NE 19:50:32 27° ESE 19:51:38 25° ESE
COSMOS 2455 3.9 19:51:45 38° ESE 19:52:04 38° ESE 19:57:34 10° NE
SL-16 R/B 3.2 19:47:04 10° N 19:52:25 44° ENE 19:57:45 10° SE
ARIANE 5 R/B 3.5 20:08:30 67° SW 20:09:14 72° S 20:50:09 10° E
ARIANE 5 R/B 3.5 20:08:31 67° SW 20:09:14 72° S 20:50:09 10° E
Cosmos 1354 Rocket 4.5 20:09:37 56° ESE 20:09:42 56° ESE 20:14:51 10° NNE
CZ-4C R/B 3.2 20:13:13 27° E 20:13:13 27° E 20:16:02 10° NE
GPS 2-17 Rocket1 4.2 20:15:40 39° E 20:15:40 39° E 20:18:31 10° ESE
Cosmos 2227 Rocket 4.2 20:11:17 11° SSE 20:15:26 24° ESE 20:19:51 10° NE
Cosmos 2360 Rocket 3.9 20:14:10 10° NNE 20:19:09 32° ENE 20:24:07 10° SE
ARIANE 5 R/B 3.7 19:47:18 10° W 20:22:35 83° S 20:28:39 10° E
Cosmos 1777 Rocket 3.8 20:25:21 82° NW 20:25:21 82° NW 20:30:26 10° N
Cosmos 1814 Rocket 4.3 20:22:14 10° N 20:27:27 68° ENE 20:32:43 10° SSE
ASTEX 1 3.3 20:28:44 71° S 20:29:17 90° ESE 20:34:14 10° N
deb Ariane 3.8 20:29:50 39° NNE 20:29:50 39° NNE 20:34:15 10° E
Cosmos 1975 Rocket 3.1 20:30:08 73° E 20:30:08 73° E 20:34:24 10° N
Cosmos 1939 Rocket 3.4 20:33:33 10° NNE 20:37:28 55° ESE 20:38:35 40° SSE
Cosmos 2297 Rocket 2.0 20:37:47 52° SSW 20:39:10 76° WNW 20:44:47 10° N
USA 215 4.3 20:34:12 10° N 20:39:28 27° NW 20:40:13 26° WNW
Cosmos 2333 Rocket 3.2 20:34:45 10° N 20:40:14 47° ENE 20:45:44 10° SSE
SL-12 R/B(2) 3.9 20:39:30 29° SSW 20:43:41 89° ESE 20:51:28 10° NNE
CBERS-1 3.9 20:40:28 10° N 20:45:31 69° WNW 20:47:08 43° SW
Cosmos 2341 Rocket 4.0 20:45:41 29° SSW 20:48:58 62° W 20:55:10 10° N
Cosmos 405 Rocket 2.9 20:46:08 10° NNW 20:49:01 51° NW 20:49:01 51° NW
Cosmos 1484 Rocket 3.3 20:50:42 10° N 20:53:41 40° NW 20:53:41 40° NW
Cosmos 2322 Rocket 2.1 20:48:39 10° NNW 20:54:16 71° WSW 20:59:56 10° S
Meteor 1-11 4.1 20:49:54 16° S 20:54:26 85° W 21:00:04 10° N
CZ-3C R/B 3.1 20:56:36 13° S 20:58:53 20° SE 21:05:45 10° E
Cosmos 864 Rocket 4.5 20:58:23 15° SSW 21:03:29 59° W 21:09:33 10° N
Nadezhda 3 Rocket 4.2 20:59:19 10° NNW 21:05:21 49° W 21:11:21 10° SSW
Cosmos 2366 rocket 4.1 21:00:40 14° SSW 21:05:57 55° W 21:12:07 10° N
Cosmos 1821 Rocket 4.2 21:01:09 10° S 21:07:23 73° E 21:13:31 10° N
Cosmos 1339 Rocket 4.5 21:03:27 10° N 21:09:49 83° W 21:16:14 10° S
FengYun 1-2 T 4.3 21:06:48 10° NNE 21:12:17 82° ESE 21:17:51 10° S
ARIANE 42L R/B 3.6 21:11:13 25° SW 21:12:51 38° SSE 21:21:22 10° E
H-2A R/B 4.2 21:04:36 10° WNW 21:14:31 72° SSW 21:33:41 10° SE
Cosmos 1455 Rocket 3.1 21:14:45 10° N 21:19:08 81° E 21:23:33 10° S
Cosmos 990 Rocket 4.1 21:21:25 10° SSW 21:26:31 56° WNW 21:31:34 10° N
CENTAUR R/B 2.3 21:23:28 10° SSW 21:28:04 61° ESE 21:33:04 10° NNE
Sylda 4400 3.2 21:27:29 16° WNW 21:29:07 36° N 21:31:24 10° ENE
H-2A R/B 3.5 21:25:45 10° NNW 21:29:35 20° WNW 21:32:12 14° WSW
CZ-2D R/B 3.8 21:26:38 10° NNE 21:30:50 67° ESE 21:34:56 10° S
Cosmos 158 Rocket 4.5 21:25:41 10° N 21:30:56 66° ENE 21:36:06 10° SSE
GPS 2-14 Rocket1 3.9 21:32:25 15° SW 21:33:20 16° SSW 21:35:29 10° SSE
NOAA 12 4.1 21:30:10 10° N 21:35:24 73° WNW 21:40:40 10° SSW
SL-16 R/B 3.9 21:34:02 10° W 21:40:09 - SW 21:34:56 11° W
COSMOS 2455 4.4 21:34:57 13° W 21:37:44 17° WNW 21:41:27 10° NNW
CZ-2D R/B 4.3 21:35:30 10° NNE 21:38:54 43° E 21:42:20 10° S
H-2A R/B 3.9 21:37:21 10° NW 21:39:31 17° WNW 21:41:09 12° WSW
Cosmos 2333 4.4 21:34:22 10° NNW 21:39:56 52° WSW 21:45:32 10° S
BlueWalker 3 3.9 21:37:02 10° S 21:40:08 25° SE 21:43:14 10° ENE
Cosmos 292 Rocket 3.8 21:35:55 10° S 21:40:38 86° ESE 21:45:19 10° NNE
Cosmos 2219 3.2 21:37:51 10° SSW 21:43:35 80° WNW 21:49:16 10° NNE
Ariane H10+ 3.0 21:42:37 10° SW 21:43:41 12° S 21:44:41 10° SSE
ARIANE 5 R/B 3.2 21:41:27 11° W 21:44:30 50° S 21:51:31 10° ESE
ARIANE 5 R/B 3.1 21:43:51 10° N 21:48:25 37° WNW 21:52:59 10° SW
Lacrosse 5 rocket 2.7 21:45:52 10° N 21:49:17 38° ENE 21:52:37 10° SE
ARGOS 3.9 21:45:34 10° NNW 21:50:18 32° WNW 21:55:05 10° SW
SJ-12 3.9 21:46:47 10° N 21:50:37 57° WNW 21:54:29 10° SSW
COSMOS 2428 3.9 21:46:24 10° N 21:51:52 49° ENE 21:57:20 10° SSE
Chandra Rocket (1) 3.2 21:48:36 10° WNW 21:52:25 56° SSW 22:04:35 10° SE
Ariane H10 2.9 21:48:21 10° W 21:53:27 74° S 21:55:47 10° E
Aureole 1 Rocket 3.5 21:50:37 10° SW 21:54:26 32° W 21:57:35 10° NNW
SL-08 RB Rocket 4.4 21:51:43 10° NNW 21:55:40 33° WNW 21:59:38 10° SW
RESURS DK-1 3.0 21:52:15 10° NW 21:55:54 33° WSW 21:59:33 10° S
Cosmos 2219 Rocket 2.4 21:50:50 10° NNW 21:56:18 52° WSW 22:01:48 10° S
Cosmos 839 Rocket 4.1 21:50:40 10° NNW 21:56:38 58° WSW 22:03:04 10° S
Cosmos 2263 Rocket 2.3 21:51:44 10° SSW 21:57:25 86° ESE 22:03:03 10° NNE
Milstar 3 Cent rocket 4.0 21:49:19 10° WSW 22:06:08 71° NNW 22:13:40 10° NE
